Location: Newark
(51.8900°N, 2.0780°W)
Time: 03:57:28
(UTC+00:00)

Envisat - Pass Details

Date: 26 November 2019
Orbit: 764 x 766 km, 98.1° (Epoch: 05 December)

Event Time Altitude Azimuth Distance (km) Brightness Sun altitude
Rises 17:57:08 0° 166° (SSE) 3,221 6.2 -16.6°
Reaches altitude 10° 17:59:25 10° 167° (SSE) 2,299 5.5 -16.9°
Maximum altitude 18:04:30 82° 256° (WSW) 780 3.0 -17.7°
Drops below altitude 10° 18:09:37 10° 344° (NNW) 2,315 5.5 -18.5°
Sets 18:11:56 0° 345° (NNW) 3,245 6.3 -18.8°
